Theta_e
338 339 340 342 344 346 347 348 348 349 348 349 348 348 348 348 348 347 349 350 349 347 347 346 345 343 345 346 346 347 347 348 349 351 353 354 355 355 357 357 357 358 359 355 353 358 355 354 354 356 356 356 353 352 354 354 351 351 352 354 347 345 346 344 341 336 334 331 333 335 337 341 348 347 345 346 347 348 349 350 349 351 348 349 349
337 337 338 341 343 345 346 347 348 346 347 348 348 348 348 348 348 348 349 349 349 348 348 347 347 345 344 345 347 347 347 347 346 348 352 355 356 355 356 356 356 357 360 356 355 355 353 352 353 355 355 356 355 354 352 358 356 351 352 349 348 345 342 346 342 333 329 327 327 328 332 334 342 339 342 344 345 346 348 348 347 349 349 348 348
335 336 337 339 342 344 345 346 347 348 348 348 348 348 348 348 348 348 349 349 349 349 349 347 348 348 346 346 348 347 349 350 348 349 352 353 355 356 357 356 356 355 358 358 355 356 353 352 352 355 355 357 354 352 353 353 353 352 351 348 344 346 347 349 343 334 328 332 330 329 323 327 333 331 335 338 343 345 346 347 348 348 348 346 347
333 334 335 337 340 342 343 344 346 347 347 348 348 348 348 349 348 349 349 349 349 349 351 349 349 349 348 348 349 348 347 350 349 350 349 350 352 356 357 357 356 355 356 358 356 355 354 352 352 353 355 356 355 352 352 351 350 349 350 349 346 342 342 343 348 339 335 330 325 324 322 324 320 326 330 334 340 343 345 345 347 346 346 345 345
333 334 335 335 337 340 342 344 345 346 346 347 348 348 349 348 349 349 349 349 349 351 351 350 350 348 348 348 350 348 348 348 346 346 347 349 351 353 355 357 357 356 356 357 357 354 354 353 352 352 354 355 355 352 353 352 351 352 352 349 346 344 340 340 344 343 338 335 332 324 320 318 318 321 326 328 333 337 340 344 347 346 344 345 346
334 334 334 335 336 338 341 343 344 345 345 347 349 349 349 349 349 350 350 350 349 349 351 350 349 347 346 345 344 344 343 344 344 345 345 345 348 352 355 357 357 356 356 356 358 356 353 354 353 353 353 355 355 353 354 352 351 352 352 351 348 344 343 339 337 346 340 343 335 329 324 320 318 322 325 320 330 336 337 340 342 346 343 345 344
334 335 335 335 336 336 338 341 343 344 345 348 349 349 349 349 350 350 350 350 350 349 351 352 348 348 347 346 346 345 344 345 347 348 348 347 349 350 353 356 357 356 356 356 357 357 354 353 354 355 355 355 358 354 353 354 354 354 354 350 350 350 341 338 338 337 336 339 343 339 342 337 328 325 321 320 322 326 330 333 337 341 342 343 344
334 334 335 336 336 336 336 339 342 344 346 347 348 349 348 348 349 349 351 351 350 350 350 351 348 347 347 346 347 346 345 345 346 347 348 348 348 351 352 354 356 357 356 356 356 357 356 353 354 355 355 356 359 356 355 356 356 355 355 354 350 351 345 341 338 334 335 334 339 336 339 340 331 327 325 326 324 321 324 327 331 336 338 342 344
335 334 334 335 336 336 337 338 342 344 345 345 347 348 348 348 349 349 350 351 350 350 350 351 351 348 347 347 346 347 347 347 348 347 346 349 347 349 351 353 355 356 356 356 356 356 358 355 353 354 355 355 360 357 356 356 356 355 354 352 350 349 348 344 338 336 333 334 331 331 329 331 331 333 329 328 325 321 320 322 324 327 333 336 340
335 335 336 336 337 337 338 339 340 343 345 347 347 348 348 347 348 348 348 350 350 349 350 350 350 351 347 346 345 346 347 346 345 344 344 345 345 348 350 351 353 354 355 356 356 356 356 356 354 354 355 356 359 358 357 356 356 356 355 354 352 350 348 348 343 337 336 333 331 331 329 329 327 328 328 327 325 325 322 323 323 324 324 329 335
335 335 336 336 337 338 338 338 339 342 344 345 346 346 347 346 347 347 347 349 350 349 350 349 350 350 348 347 346 345 345 345 343 343 343 343 343 345 348 350 352 354 354 355 355 356 356 357 356 355 355 358 359 357 357 357 357 356 356 354 353 351 349 346 348 340 336 334 330 329 330 329 328 325 325 326 324 321 322 322 323 325 326 326 329
335 335 335 336 336 337 337 337 338 340 342 343 345 346 346 346 346 346 347 348 349 349 350 349 350 350 349 348 346 346 346 345 344 343 343 343 343 343 346 349 350 352 353 353 354 355 356 356 357 356 356 356 356 358 358 359 358 357 356 355 354 352 350 348 345 340 334 333 331 329 329 330 329 327 327 329 327 325 326 323 323 323 324 325 328
334 335 335 335 335 335 336 337 338 338 340 342 344 345 345 345 346 345 345 348 348 349 349 349 349 349 349 348 347 348 346 346 345 344 344 344 344 343 343 346 348 349 351 352 353 355 355 354 355 355 356 356 357 357 357 358 358 357 355 355 354 352 350 347 344 342 337 334 333 331 329 331 331 330 331 330 328 327 327 322 324 325 322 323 326
334 335 335 335 335 336 336 337 337 338 339 341 343 344 345 345 345 345 345 347 348 348 349 349 349 349 350 349 348 348 347 346 346 345 345 345 345 344 344 346 347 349 350 351 353 355 355 355 356 356 356 357 357 357 357 357 357 357 356 355 353 353 350 347 344 342 339 338 335 332 331 331 332 335 332 332 330 326 323 324 324 326 323 322 324
334 334 335 335 336 336 336 337 338 339 339 341 342 343 344 344 345 345 345 347 348 348 349 349 349 349 350 350 349 349 347 347 347 347 345 345 345 345 344 345 347 349 350 352 353 354 355 355 355 355 356 357 357 357 358 357 357 357 357 356 355 353 350 349 344 341 340 338 336 334 334 331 332 334 333 333 333 330 327 325 326 324 322 322 323
334 334 335 336 336 336 337 337 338 339 339 340 341 343 343 344 344 345 346 347 348 349 348 349 349 349 349 349 349 349 350 348 347 348 347 346 346 346 345 345 347 348 350 351 352 353 354 354 355 355 356 357 358 357 357 357 356 355 355 355 354 354 351 348 345 342 341 338 338 337 334 333 333 334 336 334 335 333 332 329 329 326 323 319 318
333 334 335 336 336 336 337 337 338 339 340 340 341 342 343 344 344 344 346 347 348 349 349 349 349 349 349 349 349 348 348 347 346 347 348 347 346 347 347 346 347 348 349 352 351 352 353 354 354 355 355 356 357 358 358 357 356 355 355 354 353 353 351 349 346 343 342 339 337 338 336 335 333 333 335 336 334 333 333 331 331 328 326 321 317
333 335 336 336 336 337 337 338 339 339 340 341 341 342 343 344 344 344 345 345 347 349 349 349 349 348 348 348 348 348 348 348 347 347 348 348 346 347 348 348 347 349 351 352 352 352 352 357 353 354 355 356 357 358 358 357 356 355 355 354 355 353 351 350 348 345 344 341 339 337 338 336 337 334 333 334 334 333 332 332 331 330 328 326 321
332 333 335 335 336 336 336 337 339 340 342 342 343 343 343 344 345 345 345 346 347 349 349 350 350 349 349 349 348 348 348 348 348 347 348 348 348 347 347 349 349 349 351 351 351 351 351 353 353 353 354 355 356 356 357 357 356 355 354 354 353 353 351 350 349 346 345 343 340 337 336 336 337 336 335 335 336 333 332 331 331 331 329 328 326
331 333 334 335 336 337 337 337 337 339 340 342 343 343 343 344 345 345 346 346 347 347 349 348 349 349 349 349 349 349 349 348 348 347 346 347 349 348 348 348 349 351 351 351 351 351 351 351 353 353 353 354 355 356 356 356 355 355 354 353 353 352 351 350 350 348 347 344 342 340 338 336 336 335 336 336 336 337 334 331 331 331 329 329 328
331 333 334 335 336 337 337 338 338 340 341 343 343 343 344 344 344 345 344 345 345 347 348 348 349 349 349 348 348 348 348 348 348 348 347 347 348 350 350 349 350 350 351 351 351 351 351 351 352 353 353 353 354 355 356 356 355 354 354 354 353 352 351 351 351 348 347 344 343 342 340 338 337 336 336 336 336 337 336 335 334 331 329 329 328
331 333 335 336 336 337 338 338 338 339 340 341 343 344 344 344 344 345 345 345 345 346 347 348 348 348 348 348 348 348 348 348 348 348 348 348 348 349 350 351 349 350 352 352 352 352 352 352 351 351 352 353 354 354 355 355 354 354 353 354 353 352 351 351 350 349 347 346 344 342 342 341 337 336 336 335 336 336 337 335 334 334 331 330 330
331 333 335 336 337 337 337 337 337 338 339 341 342 343 344 344 345 345 345 345 346 347 348 348 348 348 348 348 348 348 348 348 347 347 348 348 349 349 350 351 351 350 352 352 353 353 352 352 351 351 352 352 353 354 355 355 355 354 353 353 353 352 351 350 349 349 349 347 344 343 343 343 341 337 336 336 336 335 336 337 336 335 334 333 331
332 334 335 336 337 337 337 337 337 337 338 340 341 343 344 345 345 346 345 346 346 347 348 348 348 348 348 348 347 348 348 348 347 348 347 348 349 349 351 351 352 352 351 352 353 353 353 352 352 351 351 352 353 353 354 355 355 354 353 353 353 353 352 352 351 350 349 348 346 344 344 344 342 339 338 337 336 335 335 336 336 336 335 334 333
331 333 334 335 336 336 336 337 337 337 338 339 341 342 344 345 346 346 346 347 347 348 348 348 348 348 348 347 347 348 347 347 347 348 348 348 349 349 350 351 352 352 352 352 353 353 353 353 352 352 351 351 352 353 353 354 355 355 354 354 353 353 352 352 352 351 352 349 347 346 346 344 343 341 340 338 337 335 335 335 335 336 336 335 335
331 333 334 334 335 336 336 337 337 338 338 339 340 342 344 345 346 347 347 348 348 349 348 348 348 348 348 347 347 347 347 347 348 348 348 349 349 349 349 350 351 351 352 353 352 353 353 352 353 353 353 352 352 353 353 354 354 355 354 354 354 353 353 353 352 352 351 350 348 347 347 345 343 342 342 341 339 337 336 335 334 335 336 336 335
331 333 334 335 335 335 336 337 337 338 338 339 340 341 343 345 346 348 349 349 349 349 349 348 348 348 348 348 348 348 348 348 348 349 349 349 349 349 349 349 351 351 352 352 352 352 353 353 353 353 353 353 353 353 353 353 354 354 354 354 353 353 353 353 353 353 352 351 350 349 348 346 345 344 343 343 342 340 338 336 336 335 335 335 335
331 332 333 333 334 335 336 336 337 338 338 340 341 342 343 344 346 348 349 350 350 350 349 349 349 348 348 349 349 349 349 349 349 349 349 349 349 349 349 349 350 349 350 351 352 352 353 353 353 353 353 353 353 353 353 353 353 354 354 354 354 353 353 353 353 353 353 352 352 351 349 348 347 346 344 344 343 341 340 338 338 336 335 334 334
330 331 333 334 334 335 335 336 337 338 338 339 340 341 342 344 346 348 350 350 351 350 350 350 349 349 349 350 350 351 351 350 350 349 349 349 349 349 349 349 349 349 350 350 352 353 353 352 353 353 353 353 352 352 353 353 353 353 354 353 354 353 353 352 352 353 353 353 353 352 351 350 349 347 341 340 340 339 342 339 339 337 336 334 334
329 330 332 333 335 335 336 336 337 337 338 339 340 341 341 342 344 347 349 351 352 351 350 350 350 350 350 351 351 351 351 351 350 350 349 349 349 349 349 349 349 349 349 349 349 351 352 352 352 352 353 353 353 353 346 336 340 353 353 354 354 354 354 353 352 352 352 353 354 354 354 349 341 339 337 335 333 333 334 340 342 339 338 336 334
329 330 332 333 334 335 336 336 336 337 338 339 340 341 342 342 343 345 347 351 352 351 351 351 351 351 352 352 351 351 352 351 351 351 350 350 349 349 349 349 349 349 349 349 349 348 349 351 352 352 351 352 353 353 337 331 332 335 350 353 353 353 354 354 353 352 351 352 353 354 354 352 345 339 340 333 332 331 331 330 333 336 337 339 336
328 330 331 332 334 334 334 335 336 337 338 339 340 341 341 342 343 344 346 350 351 352 351 351 352 352 353 352 352 352 351 351 351 351 351 350 350 349 349 349 349 348 349 349 348 348 348 349 350 351 352 352 352 339 333 330 330 330 335 353 354 353 353 353 354 354 353 353 352 352 353 354 354 352 350 347 337 331 329 329 329 330 331 332 334
327 329 331 332 333 333 334 336 337 338 338 340 341 341 341 342 343 344 347 348 350 351 351 352 352 353 353 353 353 352 352 352 351 351 351 351 350 349 349 348 348 349 349 348 348 348 348 348 348 348 350 351 352 337 331 328 328 328 328 338 353 354 353 353 353 354 354 353 353 352 352 353 354 345 348 350 349 346 331 326 327 328 328 328 328
328 329 330 331 333 334 335 336 337 338 340 341 342 342 343 344 344 345 346 348 349 351 352 352 353 353 353 353 353 353 352 352 353 352 352 351 350 349 349 349 349 349 348 348 348 348 348 348 348 348 348 350 351 338 329 326 325 325 326 331 350 353 353 353 353 353 354 353 353 352 351 351 352 353 352 351 350 349 349 345 338 334 335 335 328
326 327 329 330 331 332 333 334 336 338 339 340 341 343 344 344 345 345 346 348 349 351 352 352 353 353 354 354 353 353 353 353 353 353 352 351 350 350 349 349 349 348 348 347 348 347 348 348 348 349 348 348 350 335 327 323 322 322 324 326 346 351 353 353 353 353 353 353 353 353 353 352 352 352 352 351 351 350 349 348 347 345 341 340 340
324 325 325 326 328 331 333 334 338 339 338 339 341 344 345 345 347 346 347 348 350 351 351 353 353 354 354 355 354 353 353 353 353 353 352 351 351 350 350 350 349 349 349 349 348 349 348 348 349 349 348 348 350 332 326 323 321 321 323 335 343 348 350 351 352 353 353 354 354 354 353 352 352 352 344 333 339 350 350 348 347 347 347 346 344
332 331 332 332 332 333 338 341 338 339 339 339 342 345 346 346 346 347 347 348 349 350 352 353 354 355 355 356 355 355 354 354 353 353 352 352 351 351 351 351 349 349 348 347 347 347 348 348 349 349 348 348 349 336 323 320 319 319 321 338 343 346 348 350 351 352 353 353 353 354 353 353 353 352 342 332 329 333 348 348 348 347 348 347 347
342 342 340 340 340 341 343 340 340 340 340 341 344 346 346 346 346 347 347 347 348 349 352 354 354 356 356 357 357 356 355 355 354 353 352 353 353 353 352 352 350 349 348 348 348 348 348 348 348 348 349 348 348 339 322 318 317 317 325 340 343 345 347 348 350 352 353 353 354 347 354 354 353 353 337 329 329 332 343 347 348 347 347 346 347
348 347 347 347 347 347 349 349 347 347 346 341 345 346 346 346 347 347 348 347 347 348 350 352 355 357 358 358 358 357 356 355 355 354 354 353 353 353 353 353 352 351 350 350 349 348 348 348 348 348 342 346 349 341 321 319 316 315 325 342 345 345 346 347 348 350 351 352 353 350 345 343 348 346 333 329 326 331 345 347 347 347 346 346 348
348 348 349 350 352 352 352 351 351 349 349 341 343 345 347 346 347 347 347 347 348 349 350 351 353 356 358 358 358 358 357 356 355 355 355 354 354 354 353 352 352 352 350 350 349 349 347 347 348 349 349 348 348 349 339 317 315 314 318 341 346 346 346 347 348 349 349 350 352 352 348 330 326 327 326 324 323 322 342 349 349 348 347 346 350
347 348 352 349 350 350 350 351 352 354 354 353 351 350 350 347 342 341 343 345 346 348 350 351 351 353 355 357 358 358 357 357 357 356 356 355 355 353 353 352 351 352 351 350 349 348 348 348 348 349 349 350 350 350 346 318 314 313 314 325 345 347 348 348 348 347 349 349 350 351 352 338 326 322 320 319 319 318 322 344 349 349 349 349 343
350 352 349 347 348 348 349 349 350 352 355 356 355 353 351 350 350 349 351 357 353 342 344 348 349 351 353 355 356 358 358 358 358 357 355 354 355 354 353 352 352 351 349 349 349 347 347 347 347 348 348 349 351 342 351 322 316 313 313 315 340 348 348 349 349 349 349 349 350 351 351 341 328 323 320 317 315 315 316 329 338 327 328 327 338
343 344 348 346 344 344 345 346 348 349 351 352 352 351 350 349 348 348 351 353 354 352 343 344 348 350 352 353 355 356 356 358 358 357 355 354 354 354 353 352 351 350 349 348 348 347 347 346 346 346 347 348 349 348 334 338 316 313 312 312 320 336 333 347 350 349 349 350 352 352 350 337 325 318 314 313 313 312 313 323 317 316 316 317 323
342 343 343 344 342 342 343 344 345 346 347 348 349 348 350 348 346 350 352 355 353 352 342 341 344 348 351 352 353 355 356 357 358 357 356 355 354 354 353 352 351 350 349 348 347 348 346 345 345 345 346 347 348 350 337 328 328 313 313 312 313 318 326 343 350 351 352 352 352 353 342 320 315 311 311 311 311 313 323 315 312 314 315 317 327
340 341 342 342 341 340 341 342 343 344 345 345 345 346 347 345 346 351 353 353 354 354 344 340 341 345 349 351 353 354 355 356 357 357 355 354 354 354 352 352 351 350 349 348 348 348 347 346 346 345 345 346 349 349 350 334 323 318 313 312 313 314 316 320 341 349 351 348 316 309 311 314 314 314 314 316 318 316 310 308 309 311 318 326 330
340 340 340 340 340 340 340 340 341 342 343 345 343 344 343 341 345 351 351 352 355 354 354 349 341 342 345 350 352 353 354 355 356 357 356 356 355 354 353 352 352 351 350 349 349 348 347 347 347 347 346 347 349 350 351 347 332 326 319 313 313 314 316 317 324 334 321 314 314 316 317 321 324 326 334 336 337 336 326 322 318 319 328 331 332
336 339 340 339 339 339 339 340 339 340 341 342 342 343 343 343 346 347 349 350 353 355 355 354 349 343 342 347 351 352 353 355 355 356 356 356 355 354 353 352 353 352 351 351 350 349 348 348 348 348 348 347 348 350 349 338 336 335 331 327 320 320 317 317 323 327 325 331 332 332 331 323 323 322 323 322 323 327 330 332 332 332 332 333 333
334 337 339 336 338 337 338 338 337 337 339 339 340 341 342 344 345 346 347 350 354 355 354 352 352 347 345 347 350 359 357 354 355 356 356 355 355 355 354 353 353 353 352 352 352 351 349 350 349 350 349 348 347 347 342 340 334 335 335 333 330 329 327 325 326 329 331 334 335 332 331 334 334 334 333 333 334 334 332 330 331 331 330 330 332
331 334 337 335 334 337 336 337 336 335 337 337 337 338 340 341 342 343 344 347 350 354 352 349 348 347 346 348 351 355 355 352 335 319 312 311 319 339 352 353 342 343 356 356 354 353 353 354 353 351 350 348 348 343 343 331 338 326 333 334 331 331 331 330 329 323 333 333 333 332 332 332 331 330 329 328 326 325 324 324 325 324 324 323 323
331 333 333 334 336 334 335 335 333 334 336 336 336 336 337 339 340 340 342 343 346 348 348 348 347 346 347 349 353 354 351 343 335 328 321 316 308 299 302 323 332 319 313 312 325 354 356 355 354 343 335 352 351 350 315 306 307 310 313 316 318 317 317 323 315 317 328 330 328 326 325 324 324 324 323 322 322 321 322 322 322 319 321 321 321
330 331 333 333 332 336 333 332 330 333 334 334 334 334 335 337 337 338 340 341 342 345 346 347 347 346 345 353 349 346 341 336 334 332 330 326 323 317 300 297 303 306 303 308 311 309 313 331 348 336 312 303 308 302 300 298 299 300 299 299 302 303 304 304 308 324 324 323 322 322 321 322 322 322 321 320 320 320 321 321 321 321 321 321 321
Wind_Speed
16 16 17 18 18 16 15 14 14 15 15 15 15 16 16 15 14 14 12 12 11 10 9 9 9 8 8 9 10 9 9 7 6 6 6 7 7 7 7 7 6 6 6 6 6 6 6 5 4 4 4 4 5 5 4 4 3 3 3 1 1 1 0 2 2 4 6 4 5 4 3 2 1 1 1 1 1 2 2 2 3 3 3 3 3
12 13 14 16 16 17 16 14 15 17 15 16 17 17 16 15 15 14 11 12 13 12 11 11 10 11 11 11 9 8 8 8 7 6 7 6 7 8 7 7 7 7 6 6 6 6 6 5 5 5 5 5 5 3 3 3 3 3 3 2 0 2 2 0 2 2 2 3 4 2 3 3 2 3 2 2 2 2 1 2 3 3 3 3 2
15 17 16 16 18 19 16 15 16 18 17 17 17 16 16 15 14 13 12 13 13 13 11 12 10 10 10 8 10 7 6 7 6 5 5 6 6 7 7 7 7 7 6 6 6 6 6 6 6 5 5 5 4 3 3 3 4 5 5 5 2 0 1 0 2 1 3 2 2 5 1 1 2 2 2 3 3 2 2 3 3 3 3 3 3
19 20 20 17 18 18 17 16 17 16 16 16 16 17 15 14 14 14 13 13 12 13 13 11 10 8 7 6 6 6 6 5 5 5 5 5 7 7 6 7 8 8 7 6 6 6 6 6 5 5 5 5 5 5 4 4 3 3 3 3 3 1 1 2 1 2 4 5 2 1 2 4 0 5 5 4 1 2 3 4 3 3 3 2 3
20 19 18 18 19 20 21 18 17 17 17 17 17 16 13 17 16 16 14 14 13 13 13 10 8 6 5 4 4 3 2 4 4 4 7 7 6 7 9 7 7 8 8 8 7 7 6 6 5 5 5 5 4 5 5 6 5 5 5 4 4 4 3 2 1 2 2 2 6 4 2 0 3 4 2 5 1 3 4 4 4 3 3 4 4
19 22 23 22 22 19 18 18 19 18 18 17 17 17 16 15 16 15 13 13 13 14 14 11 10 10 9 8 8 7 7 6 9 10 8 9 11 9 7 8 8 7 7 8 7 6 7 6 5 5 5 5 5 5 5 4 4 4 5 5 4 3 3 2 2 1 3 2 3 3 5 3 3 2 4 4 1 3 2 3 4 3 3 3 4
17 17 18 19 19 19 20 20 21 20 19 16 16 17 17 16 16 16 14 13 13 13 14 11 10 10 12 13 12 12 12 10 10 10 10 8 5 7 8 7 7 8 7 7 7 6 6 6 6 5 5 5 4 4 5 6 6 6 4 4 5 4 3 3 4 3 1 1 3 1 0 0 5 6 5 2 1 2 2 4 5 4 3 3 5
19 21 21 21 21 22 23 23 21 21 19 17 17 16 18 17 16 16 13 13 13 13 14 13 12 12 12 12 11 12 13 12 12 10 6 5 6 7 6 7 7 7 7 7 7 6 6 6 6 5 5 5 5 6 6 5 5 3 4 5 3 4 5 5 4 3 4 3 1 1 0 3 1 1 4 7 5 4 4 1 1 4 4 4 5
20 19 21 22 23 22 21 20 21 19 17 18 17 17 17 16 17 16 16 14 13 15 15 14 13 13 12 11 11 10 10 9 7 6 6 6 6 4 6 6 6 7 7 7 7 7 7 7 6 6 6 5 5 5 5 5 6 5 4 4 4 3 4 3 3 4 3 5 1 0 1 1 1 1 2 1 4 3 2 3 3 1 2 4 6
17 20 20 21 22 22 20 19 17 18 18 17 17 16 16 15 16 17 16 14 14 16 16 16 15 12 12 12 13 11 8 6 5 6 6 6 7 6 6 6 6 6 6 7 7 7 7 6 7 7 7 6 5 6 5 4 4 4 5 5 5 4 3 4 5 3 5 4 4 4 3 1 0 1 1 1 2 3 6 7 6 6 5 6 5
17 19 19 20 19 19 16 17 18 17 15 16 17 17 16 16 17 18 18 15 15 16 17 17 15 13 13 13 14 12 10 7 7 6 6 5 7 7 7 7 7 7 6 6 7 7 7 7 7 7 6 6 6 6 6 6 5 5 5 4 4 5 4 4 3 3 4 4 4 5 6 6 5 3 4 3 3 2 1 2 3 6 8 5 5
20 19 19 17 15 16 16 17 18 18 16 17 16 16 16 16 17 19 18 17 15 16 17 17 15 15 14 14 14 13 11 9 10 10 9 9 9 8 6 6 6 6 6 6 7 7 7 7 7 6 7 6 7 6 5 5 5 5 5 5 5 5 3 4 4 4 4 5 5 5 5 5 4 4 5 6 6 5 7 6 6 2 2 4 3
19 18 16 15 17 19 20 19 17 18 19 19 19 17 16 16 18 19 18 18 16 16 17 17 16 15 14 14 13 11 11 11 10 10 9 10 9 7 6 7 6 7 7 8 8 10 8 7 7 7 7 7 7 5 5 5 5 5 5 5 5 5 6 5 5 6 6 6 7 6 5 5 6 4 4 5 4 4 6 5 4 1 5 3 3
19 18 17 17 18 19 20 19 19 18 19 19 19 17 16 16 18 19 20 18 16 16 17 17 17 17 15 14 12 11 11 11 11 11 10 9 8 9 9 9 8 10 9 10 9 9 8 8 8 8 7 6 6 6 6 6 6 6 6 6 6 6 5 6 6 5 5 6 4 6 5 6 6 4 4 5 5 5 4 5 4 0 0 3 1
18 17 17 19 19 20 19 19 19 18 19 19 18 18 16 16 18 20 19 19 18 18 16 17 16 16 15 14 12 10 10 10 10 9 9 9 8 9 8 8 8 9 9 8 7 8 8 7 7 7 7 7 6 6 6 6 5 6 6 6 6 5 6 6 6 6 6 6 5 6 6 6 6 5 5 6 5 6 6 6 6 3 1 1 2
17 17 18 19 19 17 17 17 17 17 19 18 19 18 18 18 19 21 21 20 19 18 17 17 16 14 14 14 14 13 10 9 8 7 7 8 8 9 9 9 9 8 7 6 8 8 8 8 7 8 7 7 7 7 7 6 6 6 6 6 7 4 6 7 7 6 7 6 7 5 3 6 5 5 5 5 6 5 5 5 6 5 6 4 1
18 18 18 20 17 17 17 18 17 17 18 20 21 20 21 19 19 20 19 18 19 19 18 17 16 15 15 15 13 12 12 12 11 11 11 8 8 8 8 9 7 6 6 7 7 7 8 8 8 8 7 7 7 7 7 7 6 7 7 6 7 6 6 7 6 7 7 6 5 5 6 6 6 4 4 5 5 3 3 5 6 8 7 5 3
20 21 21 21 20 21 19 17 18 20 21 21 21 20 19 19 20 20 19 19 19 18 18 17 17 16 15 15 14 14 13 13 11 11 9 8 8 8 7 6 8 8 7 7 7 8 8 8 8 8 8 7 8 8 8 7 7 7 7 7 7 6 6 5 6 7 7 5 5 5 5 6 5 4 6 5 4 5 5 5 6 5 7 7 5
18 19 17 16 16 16 17 18 20 20 19 19 19 18 17 17 18 20 21 21 20 17 16 15 15 13 12 14 15 14 12 12 11 10 9 9 10 10 10 10 7 6 7 7 7 8 8 8 8 8 8 9 8 8 8 8 8 7 7 7 6 6 7 7 7 6 6 6 6 7 6 6 5 5 5 5 4 4 5 5 5 5 5 5 6
19 18 17 18 20 21 21 21 20 20 19 18 19 17 18 18 17 17 18 17 16 17 16 16 15 13 13 12 13 13 12 12 11 11 10 11 11 10 10 9 10 8 8 8 8 8 8 9 8 9 9 9 9 9 8 8 8 8 8 7 7 7 7 8 7 6 6 6 7 7 7 7 6 5 5 5 6 5 4 5 5 5 5 5 4
19 18 19 20 20 20 20 20 19 17 15 14 15 18 18 17 17 18 19 18 17 17 16 15 14 14 14 14 14 13 14 12 11 12 12 11 10 9 9 9 6 8 8 8 9 9 9 9 9 9 10 9 9 9 8 8 8 9 8 8 7 7 9 8 7 7 6 6 8 8 8 8 5 6 7 6 5 5 4 5 4 5 5 4 5
20 20 20 20 20 20 19 17 13 13 14 17 17 16 17 18 18 18 17 17 18 17 16 15 13 13 15 14 14 13 13 12 13 12 13 11 10 10 9 7 8 8 8 10 10 9 8 9 9 10 10 10 10 10 9 9 9 9 9 7 8 8 9 9 7 8 8 7 7 8 9 8 6 8 7 7 7 6 5 5 5 6 6 6 5
20 20 20 20 20 20 19 19 18 19 19 19 18 18 18 19 18 17 17 18 17 17 15 14 14 14 15 14 14 13 13 14 14 13 13 12 11 10 8 9 9 8 8 9 10 10 9 9 10 10 10 10 10 10 9 10 10 11 10 9 9 9 10 10 10 11 10 8 8 9 10 8 5 7 8 9 6 6 5 6 7 5 6 6 6
20 19 18 17 17 15 14 14 16 16 16 17 17 17 17 17 18 17 19 19 17 16 15 14 14 15 15 14 14 13 14 14 14 13 14 13 11 10 9 10 10 8 9 9 9 9 9 9 10 10 10 10 10 10 10 10 11 11 10 10 10 10 10 10 11 11 9 9 10 9 10 9 8 8 9 8 7 6 6 7 6 6 6 7 6
18 17 17 15 14 15 15 16 17 17 17 16 17 17 17 17 17 17 17 18 17 15 15 15 15 16 15 14 14 13 14 14 14 13 14 13 13 11 10 11 10 10 10 9 8 8 9 10 11 12 12 12 11 11 11 11 10 10 10 10 10 10 11 11 11 10 9 10 10 11 12 9 8 10 9 9 8 8 8 7 7 6 7 6 5
17 16 15 16 17 17 17 17 16 16 17 17 17 17 17 16 18 17 16 15 15 14 16 16 16 16 15 16 15 14 15 16 15 14 15 14 13 12 12 11 11 12 11 11 10 9 10 12 12 12 12 12 10 10 11 12 11 10 10 10 10 11 11 11 11 10 10 9 10 11 11 9 9 11 12 10 9 10 8 8 9 8 7 6 7
17 16 16 16 15 18 19 18 18 18 17 16 16 17 17 16 17 17 15 16 16 16 16 16 16 16 15 16 16 15 15 14 14 14 13 13 13 13 13 13 12 12 12 12 11 12 11 12 13 12 12 12 11 10 10 10 10 10 11 11 11 11 11 11 11 11 10 10 10 11 10 10 11 12 12 12 11 9 8 10 10 10 8 8 9
14 14 16 17 19 19 18 18 18 17 16 15 15 16 17 17 17 16 16 16 14 15 15 16 16 16 15 16 15 14 14 14 13 13 12 13 13 13 13 12 11 13 13 13 13 13 12 11 12 11 12 10 9 10 10 11 11 11 11 12 12 12 11 11 11 10 10 10 11 11 11 11 12 12 12 12 10 10 8 9 8 7 8 8 10
16 17 18 18 18 17 18 18 18 17 17 16 15 15 14 13 14 14 15 16 15 15 16 16 15 15 15 14 14 13 13 13 13 12 13 13 13 12 12 12 12 12 11 13 12 12 12 12 12 12 12 10 10 11 10 11 12 12 12 12 12 12 12 11 11 11 10 10 10 11 11 11 13 15 17 14 12 11 8 9 9 8 9 9 9
18 17 18 18 19 18 18 18 17 17 17 16 15 15 16 17 17 16 16 16 15 16 16 15 15 15 14 14 13 12 12 13 13 14 14 13 12 12 12 13 13 13 12 12 12 12 12 13 13 13 11 10 10 10 13 18 16 12 12 11 10 11 12 11 11 10 10 10 12 11 12 16 17 18 17 17 17 16 16 13 11 9 10 10 10
18 17 18 18 18 18 17 17 17 18 18 17 17 16 16 15 15 15 16 15 15 15 16 16 16 14 13 13 12 12 12 13 14 13 13 13 13 12 12 12 13 12 13 12 12 13 13 13 14 13 13 11 11 11 17 16 18 19 14 11 12 11 10 10 10 11 11 11 11 12 12 14 15 15 15 18 18 18 18 18 18 16 13 12 11
16 18 18 17 18 16 16 17 18 18 18 17 16 15 15 16 16 16 15 13 14 14 15 14 14 13 13 13 13 13 13 14 13 14 14 13 13 13 13 13 13 13 12 11 13 14 13 13 12 12 13 13 12 15 17 17 18 19 17 13 11 10 9 10 10 12 11 11 11 11 10 10 11 13 13 13 15 18 19 19 20 19 18 18 17
17 17 17 17 18 17 18 18 17 17 18 18 18 17 17 17 16 14 13 14 14 14 13 13 13 13 14 14 13 14 14 14 14 14 13 13 13 14 14 13 14 13 11 13 14 13 13 13 13 13 14 13 12 16 16 17 17 18 19 16 11 10 10 11 11 12 12 12 11 11 11 10 11 16 14 12 11 12 15 19 19 18 18 19 20
16 17 18 17 15 14 16 18 19 19 20 19 18 19 18 15 13 11 13 13 13 13 14 14 14 14 14 14 14 14 14 14 14 14 13 14 14 15 15 14 12 12 14 14 13 14 13 13 14 14 13 12 13 15 17 18 18 18 18 16 13 13 11 11 12 12 11 12 13 12 11 12 11 10 10 12 11 12 11 10 11 11 13 17 20
14 14 14 14 15 14 12 11 12 15 13 10 11 10 6 7 10 12 12 12 13 14 14 14 14 14 14 14 14 14 14 14 14 14 14 14 15 14 14 13 13 14 14 14 14 14 14 14 14 13 13 13 13 16 16 18 18 19 18 15 12 12 12 12 12 12 13 13 12 12 12 13 12 11 11 12 11 12 11 11 12 12 12 14 14
7 10 9 10 11 14 15 15 11 10 10 12 12 11 12 12 12 13 12 13 13 13 14 13 13 14 14 14 14 14 15 14 14 14 14 15 14 14 15 13 13 13 12 12 12 13 14 14 14 13 13 15 14 16 17 18 19 18 17 11 11 12 13 13 13 12 12 12 12 12 12 13 13 12 14 17 15 12 11 13 14 13 12 12 14
6 8 6 6 7 8 7 6 6 8 9 10 9 11 11 10 11 11 12 12 12 13 14 14 14 14 14 14 14 15 15 15 14 14 15 15 14 14 14 12 13 13 13 14 14 13 13 13 14 13 14 15 13 14 17 18 18 18 13 10 11 11 12 13 14 13 13 12 12 12 12 12 12 13 15 16 16 15 13 14 14 14 13 13 15
11 10 10 10 9 9 9 11 9 7 7 6 7 9 10 11 11 10 11 12 12 14 13 13 14 14 14 14 15 15 15 15 14 15 16 15 15 13 14 12 14 14 14 14 13 12 12 13 14 14 15 14 13 13 17 18 19 18 17 12 11 11 13 13 13 13 12 12 13 18 16 13 13 13 15 16 17 14 13 14 14 14 15 15 13
11 13 13 12 11 11 10 9 8 7 4 9 10 11 11 10 10 10 11 12 13 13 12 13 14 14 15 15 15 15 15 15 15 15 15 15 15 15 15 13 13 13 13 12 11 12 12 12 12 13 16 16 13 12 17 18 19 19 17 11 11 11 12 12 12 13 11 11 12 13 17 17 15 15 17 16 17 15 13 14 14 14 15 16 12
13 14 14 13 13 15 14 12 10 5 2 6 9 9 8 8 8 8 9 12 13 12 13 12 13 14 14 15 13 15 15 15 15 15 14 15 14 12 12 12 12 12 11 11 11 12 13 12 11 12 12 13 13 12 12 19 18 19 21 13 10 11 12 13 12 12 12 11 12 12 13 16 19 20 19 18 17 18 16 14 12 13 14 16 13
13 12 14 15 15 15 13 11 7 6 7 6 8 8 5 4 4 4 3 3 3 4 6 8 10 12 13 14 13 14 15 15 15 15 15 14 12 12 12 12 12 11 11 11 12 11 12 12 11 11 11 12 11 12 12 18 18 20 22 19 11 13 13 12 11 12 12 12 11 11 10 13 18 19 20 20 19 18 18 15 14 13 14 15 11
11 13 14 15 14 14 14 13 10 11 10 9 11 12 9 8 8 7 4 4 4 3 4 5 7 9 11 12 13 13 14 13 13 12 11 12 11 12 11 12 11 10 12 12 11 10 10 10 10 10 10 11 11 15 10 15 19 20 21 24 14 13 13 12 12 11 11 10 11 10 10 13 18 19 19 18 16 13 14 10 13 17 19 16 10
12 14 12 14 15 14 14 12 10 11 10 9 12 12 8 7 9 4 3 2 3 3 4 6 9 10 10 11 12 13 12 11 11 12 13 13 11 11 11 11 11 10 11 12 12 10 10 10 9 8 8 9 9 10 16 12 17 20 22 22 23 17 16 14 12 12 11 11 10 10 11 14 12 12 11 11 11 11 8 11 17 15 13 11 7
11 11 10 13 14 12 12 11 10 10 10 10 11 10 8 9 7 3 3 3 3 1 2 4 5 8 10 12 12 13 12 12 13 12 12 11 10 11 10 10 10 10 10 11 9 9 9 9 9 8 7 7 8 8 12 16 15 21 21 23 23 23 19 13 13 12 10 10 10 7 2 5 4 4 4 5 6 5 7 9 8 11 11 7 3
10 10 9 10 11 12 11 11 9 9 9 9 8 10 9 9 4 3 5 5 5 4 1 3 4 5 6 7 8 10 12 12 11 12 11 11 10 9 9 9 9 9 9 10 9 9 10 9 9 9 8 7 7 8 7 12 18 19 22 22 22 22 22 19 13 11 9 3 5 7 6 5 4 4 4 4 2 2 6 8 9 9 6 3 3
8 8 8 7 9 10 11 11 9 7 7 7 7 8 9 3 3 5 6 6 6 6 6 3 2 4 5 4 6 8 9 11 11 11 12 12 12 11 11 9 9 10 10 9 9 9 9 9 9 9 8 7 7 6 7 6 9 12 13 17 19 19 20 19 14 8 7 5 4 5 2 2 1 2 3 3 4 3 4 5 7 5 2 3 4
11 8 5 7 7 9 9 9 9 6 6 7 6 6 4 3 3 3 3 3 4 5 6 6 4 3 3 4 6 7 6 7 8 9 9 9 9 9 9 9 9 9 8 8 8 8 8 8 8 8 7 6 7 7 6 4 5 6 7 9 9 10 11 7 7 9 10 9 5 2 2 3 4 5 4 5 4 3 1 1 0 0 1 1 3
7 7 5 4 6 7 7 7 7 5 6 7 7 7 6 6 6 6 6 6 6 5 5 5 6 3 2 4 5 7 7 6 6 7 8 8 7 8 9 10 10 10 9 9 9 8 9 9 9 8 7 7 7 7 6 6 6 7 7 7 7 7 7 8 8 7 5 3 2 2 1 1 2 3 4 4 4 4 4 5 5 5 5 5 4
10 7 6 4 4 6 5 6 5 3 5 6 6 5 5 6 5 5 5 6 6 5 5 4 4 3 3 2 5 5 6 6 5 5 6 4 0 3 6 6 2 3 9 10 9 8 9 8 8 8 8 8 7 6 8 8 8 10 10 8 7 8 7 7 6 6 4 3 4 4 4 4 4 4 4 4 4 4 4 4 3 4 4 3 3
9 8 7 5 4 4 6 6 5 5 6 7 6 6 5 4 4 4 5 6 5 5 5 6 5 3 2 2 4 5 5 6 7 7 7 5 8 8 5 1 2 5 5 2 3 8 7 8 7 4 3 8 9 8 8 11 9 8 7 6 5 6 7 7 9 11 7 5 4 5 4 4 4 4 4 4 4 4 4 5 4 3 3 3 3
8 8 10 5 3 3 4 4 3 4 5 5 5 4 5 5 4 4 4 4 4 5 5 5 5 6 3 3 4 5 5 6 6 6 7 7 5 8 13 12 6 5 4 4 2 4 5 6 9 7 2 9 5 12 13 12 12 11 10 11 12 13 13 13 12 10 6 5 5 6 5 4 4 5 5 4 4 4 4 4 5 4 3 5 5
Wind_Direction
186 183 182 184 184 183 182 180 183 183 182 181 181 183 184 184 183 189 186 179 179 179 185 184 185 189 196 198 204 202 200 196 194 197 190 191 186 185 185 187 183 177 177 171 178 181 189 191 188 195 184 180 185 195 190 201 201 200 206 197 188 257 340 45 68 106 108 45 35 39 31 21 14 53 187 217 221 224 195 170 194 188 209 220 226
179 186 182 181 183 183 181 182 181 182 186 183 185 186 185 183 187 188 181 183 184 184 186 189 190 191 188 195 196 196 193 192 195 196 192 189 187 186 188 189 184 181 179 178 178 180 183 187 193 194 185 193 200 188 172 193 185 194 177 165 18 187 235 188 176 108 34 135 111 46 20 359 23 38 352 326 306 274 242 202 211 203 211 219 216
188 192 186 182 182 182 183 184 186 186 184 186 188 185 185 186 187 184 186 186 188 187 187 194 193 192 191 191 190 188 204 196 186 181 182 188 192 191 192 191 186 187 181 179 178 186 186 184 198 193 189 190 186 182 166 188 191 188 179 177 214 358 280 286 160 128 148 118 101 87 47 77 325 1 318 274 250 255 265 232 217 209 217 210 209
192 191 191 184 182 183 185 186 186 186 185 186 186 187 187 188 185 185 188 189 189 190 193 196 193 189 193 182 184 179 184 185 177 165 184 185 199 196 199 193 190 190 187 181 180 186 185 191 194 190 195 194 186 179 179 192 195 198 187 195 145 161 276 272 175 155 132 127 136 146 195 120 52 277 248 273 192 216 236 246 229 212 198 205 201
193 192 191 187 185 187 188 186 183 186 188 187 186 187 189 189 187 186 186 188 190 191 192 186 181 170 161 132 137 122 86 154 166 190 192 196 196 197 204 194 193 192 190 189 183 186 186 189 190 195 191 196 185 184 187 197 196 197 191 185 185 177 208 256 293 139 182 165 134 90 44 119 209 234 171 281 201 221 235 231 241 213 191 205 221
196 193 191 190 189 186 186 184 186 188 189 189 188 188 187 189 187 186 186 187 189 190 187 182 186 177 167 166 171 182 188 179 194 200 197 195 203 199 194 193 192 194 191 192 192 182 187 189 189 188 196 193 190 196 194 183 196 201 204 192 197 193 162 169 244 175 181 186 179 158 165 172 188 228 123 251 302 229 249 231 238 235 198 210 239
200 203 199 193 188 185 186 188 189 189 190 185 186 189 188 186 187 186 187 189 189 187 185 185 187 186 187 188 186 187 191 200 202 203 199 201 180 183 193 190 191 190 193 192 193 189 183 188 190 191 194 194 194 183 190 195 196 204 198 189 203 174 132 184 208 227 51 250 207 264 74 128 146 129 199 90 198 304 264 218 233 225 208 211 232
194 197 197 196 191 188 188 190 189 191 185 182 186 187 188 186 185 186 187 188 188 185 186 187 189 191 193 195 193 195 196 199 198 203 193 164 179 186 179 190 189 192 189 192 193 191 185 189 190 190 193 197 189 195 199 200 194 207 197 208 177 177 176 184 210 186 169 253 178 165 356 64 188 93 146 165 160 173 265 312 260 212 208 224 223
197 196 196 195 195 194 190 189 192 186 182 184 187 187 187 186 185 185 186 186 186 185 187 190 193 194 194 194 198 204 201 202 197 188 177 168 176 175 180 184 186 191 190 190 192 192 193 191 187 192 194 197 197 199 205 193 196 195 201 206 202 204 190 187 152 203 187 224 148 84 72 57 50 347 169 120 136 155 263 222 244 345 221 244 233
201 203 201 198 196 195 191 187 184 187 186 185 185 184 185 184 185 184 188 186 185 186 188 192 194 192 195 198 200 200 198 192 170 182 183 171 180 182 181 178 186 187 191 189 192 194 195 192 191 195 198 194 196 200 197 194 200 202 203 205 205 203 202 187 199 193 197 213 200 174 159 92 57 56 102 146 54 125 172 207 203 187 214 245 212
201 202 202 203 199 195 185 183 187 186 186 184 185 185 184 184 185 185 189 186 185 188 188 192 193 193 198 200 200 198 193 180 174 188 184 177 188 187 184 189 183 190 184 189 192 193 196 195 195 199 196 197 198 198 201 196 198 201 202 205 210 211 201 197 212 204 197 206 210 183 193 176 180 176 209 199 156 153 118 250 241 207 211 239 245
201 201 201 196 194 196 191 188 185 186 184 186 188 185 184 185 184 187 188 188 186 188 190 192 192 197 200 200 201 200 189 186 189 194 192 195 196 193 188 173 186 182 184 184 191 194 195 199 198 193 196 199 205 199 200 196 194 197 197 197 211 219 213 194 203 204 196 211 218 206 210 200 193 176 198 179 170 194 181 198 201 205 304 244 288
199 201 196 189 193 194 195 191 183 185 187 187 187 186 185 185 185 185 189 189 188 187 190 191 192 198 200 200 203 197 193 192 194 197 197 200 198 191 175 191 178 178 190 192 197 192 193 194 194 195 200 203 203 197 202 193 190 192 202 202 204 208 212 202 203 210 196 197 215 214 207 204 214 229 162 182 181 153 174 180 230 157 202 243 254
197 197 193 192 194 196 194 188 188 187 186 185 186 185 185 186 185 186 189 188 188 188 190 190 195 198 198 199 200 195 196 194 197 200 200 203 197 197 191 192 187 195 191 199 194 190 195 200 196 201 200 198 200 202 200 199 191 195 199 204 208 210 206 208 211 208 201 214 205 204 217 214 229 200 193 161 155 137 156 182 182 305 200 249 319
196 195 194 195 196 195 192 191 187 186 185 184 186 186 184 187 186 189 189 189 188 189 189 192 196 198 197 198 196 195 198 199 202 201 199 198 201 201 200 193 194 200 198 198 180 188 196 196 201 200 199 198 198 201 204 199 200 199 201 208 211 200 202 205 217 205 205 205 203 207 211 217 228 208 183 195 173 179 166 169 152 178 296 351 280
194 195 197 199 198 192 193 192 188 185 183 184 186 185 186 188 188 189 189 188 189 189 190 192 195 196 197 196 196 194 197 198 203 203 203 199 201 203 203 199 203 199 198 178 188 186 190 196 199 205 200 198 198 202 201 198 198 201 209 208 216 198 199 204 216 210 219 210 207 211 206 229 223 216 207 202 193 189 179 153 158 164 175 250 319
193 196 197 200 194 191 193 193 189 185 184 187 187 187 188 186 187 190 191 189 189 189 190 192 193 193 197 196 194 194 194 196 199 200 200 196 197 204 206 208 203 195 192 189 186 188 190 192 197 203 201 201 200 203 203 203 195 201 207 209 217 206 200 208 207 209 222 214 212 204 210 224 230 217 221 218 211 194 192 186 179 176 176 187 225
195 196 197 196 192 192 192 192 190 189 188 188 188 187 187 187 187 188 189 190 192 190 191 192 192 194 195 195 195 194 195 199 199 199 197 193 198 201 205 203 205 199 194 193 187 188 190 192 195 200 202 200 203 202 205 204 197 204 209 211 212 201 208 214 211 209 217 208 216 216 210 227 234 217 225 219 209 206 199 195 203 193 168 192 194
195 199 197 193 193 192 192 194 194 192 188 189 187 185 186 189 189 189 191 192 189 190 192 193 193 193 194 195 195 196 197 198 199 197 192 198 201 201 202 207 202 194 193 191 189 191 190 195 194 199 198 203 204 205 203 204 200 207 208 214 209 201 208 215 217 208 218 203 214 223 220 227 223 225 231 229 224 204 209 202 212 194 196 194 187
196 195 193 192 193 191 192 193 193 190 188 187 184 184 188 189 188 192 194 191 189 191 191 193 194 193 194 193 196 197 197 197 196 193 197 203 204 201 204 202 202 192 198 195 194 194 194 196 198 197 199 202 203 207 202 206 203 211 209 210 211 201 210 217 218 212 214 208 214 223 226 228 226 219 233 231 226 217 198 199 206 202 207 205 179
194 193 193 193 194 193 193 193 194 189 183 180 182 187 188 186 190 191 191 190 191 193 192 195 190 194 192 193 194 194 197 196 195 197 202 206 205 204 204 207 190 199 194 198 200 199 197 200 200 200 201 201 203 204 203 204 206 212 213 212 208 204 213 221 216 219 216 210 214 221 227 228 221 224 231 232 232 227 205 205 199 194 213 199 182
193 193 192 192 192 193 191 189 185 178 179 182 186 185 187 190 191 190 191 192 192 192 193 193 191 194 195 194 195 194 195 194 196 199 204 204 203 204 203 193 199 203 193 203 205 202 200 199 201 206 204 204 204 204 201 200 207 211 215 211 210 207 215 221 213 223 217 216 213 220 231 229 214 223 232 230 226 225 214 217 214 197 209 211 201
193 193 192 191 190 189 185 183 181 183 185 185 183 187 189 190 190 190 190 193 192 192 191 189 191 193 197 196 193 194 193 195 198 200 204 203 203 204 197 199 205 202 200 204 206 205 203 202 207 208 207 207 206 206 203 202 208 209 212 213 211 210 214 217 217 221 218 213 216 221 230 227 214 223 232 236 228 227 217 219 227 203 214 216 202
193 191 190 189 187 182 177 180 182 185 186 185 186 187 188 189 190 189 193 193 190 190 189 189 192 195 196 195 195 195 194 197 200 202 203 203 201 202 197 203 206 203 204 208 206 206 204 205 210 213 211 211 207 207 207 207 209 208 212 214 213 214 217 219 220 221 218 211 218 222 229 223 217 224 232 234 233 225 224 225 231 225 215 223 210
192 190 186 180 172 172 179 184 186 187 188 186 186 187 188 189 189 191 195 191 190 188 187 189 191 194 194 195 196 195 197 199 201 202 204 202 203 201 199 203 203 206 208 206 208 204 206 208 212 214 214 213 211 206 209 211 211 210 211 213 215 216 218 221 222 222 216 214 219 223 229 220 216 225 235 234 230 227 228 223 231 231 224 227 213
187 184 176 174 176 178 181 183 186 189 188 187 187 186 188 188 191 191 190 187 189 187 190 189 192 193 193 195 197 196 198 199 201 203 204 203 203 203 202 204 203 206 208 209 207 205 207 212 216 217 216 217 212 208 211 213 211 210 212 216 218 219 221 221 222 222 219 215 219 225 229 221 219 223 232 231 226 228 227 228 232 231 226 219 222
185 179 178 176 174 180 184 184 186 188 188 187 186 187 188 188 190 190 188 187 188 188 190 191 192 194 194 196 196 197 198 200 201 203 203 203 204 205 204 205 203 207 207 210 210 209 212 215 219 219 219 218 213 212 215 215 214 212 213 215 219 222 224 224 225 222 220 218 221 225 226 220 222 226 232 232 228 226 223 228 228 230 227 219 226
180 176 173 176 180 183 183 186 186 188 188 187 188 188 188 188 189 187 186 187 187 188 189 192 192 195 197 197 197 196 198 199 200 202 203 205 207 207 207 207 205 208 211 211 211 212 216 217 221 220 222 218 214 215 217 217 215 214 215 218 219 220 223 226 229 228 223 222 223 226 226 221 223 227 229 234 227 229 224 233 231 227 227 226 232
176 178 177 179 180 182 184 184 186 185 184 186 187 189 189 190 189 188 187 189 185 186 189 191 193 196 198 197 196 196 197 197 198 199 204 206 207 208 208 209 209 211 212 214 213 214 216 221 225 223 223 216 215 217 216 215 215 217 217 220 220 222 223 225 228 229 226 225 227 229 229 228 225 227 228 231 228 222 220 228 231 217 225 227 234
178 179 181 181 181 182 183 183 182 183 184 184 187 190 191 191 190 188 188 187 181 187 188 191 194 197 197 195 194 194 195 195 196 200 203 204 206 206 208 210 212 212 213 213 214 215 216 219 223 225 224 219 219 221 220 215 212 214 216 220 221 223 223 225 227 228 229 225 229 230 233 231 228 228 228 230 231 228 223 223 226 212 223 227 232
180 180 181 182 183 184 182 180 181 183 182 185 189 192 192 193 192 190 190 186 182 186 189 191 196 195 192 191 191 195 193 196 199 201 201 201 204 205 209 211 213 213 214 213 213 216 218 219 221 224 223 221 223 225 221 213 214 214 213 217 219 223 222 225 226 227 229 228 228 229 235 236 234 233 233 231 231 230 229 230 232 226 217 217 229
180 182 181 182 183 180 179 182 183 183 184 186 189 190 189 196 193 192 188 181 184 187 189 191 193 190 190 190 193 192 194 198 198 202 201 201 201 204 207 210 211 212 213 213 216 217 218 220 223 224 225 224 225 226 220 214 213 213 213 218 220 222 221 222 225 227 230 231 232 232 232 234 234 232 231 232 232 232 232 232 233 233 234 231 225
182 181 183 182 181 181 182 184 182 183 186 190 188 186 193 195 192 189 179 182 185 185 184 189 191 191 191 191 192 192 196 198 199 201 201 199 201 204 207 208 211 211 211 214 217 216 219 220 222 224 227 225 228 225 218 215 213 212 213 216 225 222 222 224 224 226 230 231 233 234 236 234 236 233 234 236 236 235 230 233 237 239 241 240 241
182 181 181 181 183 183 183 183 182 185 189 190 187 190 195 191 185 176 182 182 180 183 185 190 192 192 192 192 192 193 196 199 198 199 199 200 202 206 206 207 208 207 212 217 215 217 219 220 221 224 228 229 228 226 213 212 212 211 210 207 225 226 228 228 226 226 228 230 230 231 235 239 237 234 232 232 235 237 241 234 229 229 235 241 241
183 182 182 179 179 176 174 178 187 189 187 179 187 189 160 163 175 183 183 180 182 184 188 191 193 193 192 193 192 194 198 199 199 198 199 202 204 207 206 206 206 209 212 214 214 216 218 219 221 223 228 230 231 222 211 209 211 209 207 201 221 227 233 234 232 229 229 230 230 229 233 239 239 233 231 229 230 232 235 241 240 233 229 235 237
177 172 166 162 166 170 175 182 176 166 172 181 180 168 170 180 181 182 181 183 182 186 190 192 193 193 193 193 192 194 198 199 199 198 199 203 205 206 206 205 207 212 215 215 217 217 218 218 219 220 225 232 233 217 208 208 208 208 197 200 216 225 231 236 237 234 233 233 231 229 232 237 239 237 233 225 225 228 233 240 242 243 243 240 240
95 113 116 113 111 109 108 107 133 165 172 178 164 167 173 172 178 181 181 183 184 189 192 192 194 193 194 194 194 195 198 200 198 198 201 203 204 207 209 204 207 211 213 214 217 216 218 218 218 217 222 231 234 216 205 206 206 200 185 207 212 222 230 235 239 238 237 236 234 230 230 236 238 238 234 224 222 218 234 238 243 246 244 246 250
98 94 101 105 107 109 115 122 126 135 151 145 153 167 169 176 182 176 177 185 188 194 192 191 194 194 196 196 196 196 199 200 198 199 202 205 205 206 208 202 205 208 212 215 215 219 218 218 217 218 219 226 230 215 201 205 202 191 189 200 210 216 229 232 239 241 240 241 239 234 231 234 238 241 232 223 219 209 229 236 241 248 250 249 252
85 99 100 97 98 102 101 97 103 110 163 162 161 164 167 178 180 179 182 189 197 196 192 192 193 195 199 198 196 198 200 200 199 202 203 204 204 205 207 202 206 209 214 212 213 218 221 221 220 221 221 223 229 219 201 203 198 190 191 204 205 216 227 231 234 241 240 241 244 240 233 233 237 240 234 227 219 208 227 233 235 242 250 253 250
81 79 88 92 95 88 76 77 72 56 58 149 147 151 162 168 177 177 185 199 203 200 199 195 193 195 198 199 198 198 201 200 202 205 204 206 205 205 206 203 206 208 211 211 212 215 219 222 218 220 222 221 224 224 206 202 195 191 190 197 207 213 223 229 231 234 242 240 241 244 240 233 234 240 240 234 226 212 223 237 235 240 248 256 251
73 84 86 81 77 80 81 76 69 60 62 79 105 102 102 128 144 152 213 245 269 240 209 205 196 195 197 200 200 199 201 203 203 204 204 205 202 204 204 202 205 206 209 212 213 214 219 222 219 218 222 221 219 220 212 197 197 191 193 195 209 214 219 223 227 231 234 241 242 241 245 237 232 233 235 236 233 226 224 237 242 243 245 255 277
65 72 78 86 81 80 79 70 64 63 64 70 81 82 78 73 69 46 351 305 302 271 217 186 194 196 198 200 201 203 203 205 205 201 201 207 206 204 204 203 203 204 207 212 213 215 217 221 220 219 221 222 217 210 212 199 197 194 193 199 207 217 212 217 226 232 233 239 241 239 242 238 235 235 235 238 243 245 243 247 256 256 262 276 289
53 58 62 78 79 74 72 73 64 63 63 67 74 76 74 67 55 20 317 299 288 274 229 208 193 192 197 199 200 199 200 203 207 203 199 203 201 201 203 200 200 203 206 210 214 212 215 219 221 219 219 218 216 210 206 198 199 197 199 202 210 216 211 214 224 231 228 236 238 240 242 245 252 261 265 262 253 244 237 235 247 268 287 299 302
51 58 61 70 78 77 75 68 64 61 61 60 69 70 62 55 36 340 348 349 9 355 206 209 214 211 200 198 197 197 198 200 203 203 203 203 198 200 200 199 198 200 202 209 213 211 212 217 220 221 215 215 210 209 206 199 194 201 204 205 211 219 218 216 221 232 231 234 241 248 305 32 20 347 314 297 273 239 235 254 254 252 257 262 248
47 46 47 59 71 76 72 67 62 66 62 62 61 67 56 45 4 7 10 8 350 355 80 181 217 227 222 216 203 196 195 196 198 196 199 203 203 193 198 200 194 200 202 206 210 205 210 213 216 219 216 212 212 210 210 202 199 200 206 209 213 217 225 225 230 234 238 253 68 68 45 36 25 25 32 26 23 235 234 244 253 258 257 216 175
23 35 39 51 62 67 71 71 61 62 72 71 67 67 64 31 355 13 10 3 1 359 358 342 224 212 220 216 210 210 202 196 192 192 197 198 198 195 198 196 194 200 201 203 205 203 209 210 213 216 211 210 209 208 213 197 200 209 213 219 219 222 227 229 237 284 313 330 335 355 356 332 345 2 337 319 311 303 286 266 258 249 227 207 158
16 5 23 45 52 61 64 67 62 48 62 66 70 69 79 78 60 40 31 14 18 9 348 343 323 267 226 201 208 208 204 201 194 193 196 196 195 195 199 196 195 197 198 202 200 200 205 206 211 209 207 204 208 208 196 172 175 183 203 210 214 235 239 245 244 243 257 265 277 296 326 290 268 268 252 250 257 289 306 315 4 201 207 203 180
13 9 13 46 68 74 76 71 64 50 53 56 52 44 35 31 27 22 17 21 21 16 355 329 316 301 222 208 210 203 188 189 193 190 191 192 192 195 197 195 192 192 191 198 195 198 201 199 206 200 200 205 213 203 183 181 182 189 196 195 200 208 206 204 218 227 218 241 253 259 308 16 68 64 59 59 52 33 34 27 27 33 23 15 14
2 1 10 16 56 73 75 78 72 74 72 69 63 54 41 35 27 25 20 25 14 2 357 336 319 298 266 204 192 189 180 165 117 54 38 26 275 228 204 196 190 188 193 194 198 200 200 201 195 193 191 211 209 204 217 194 186 184 179 176 191 202 197 196 195 149 114 114 112 91 82 63 54 67 58 51 39 27 25 21 32 27 19 25 40
349 355 10 13 22 58 56 51 38 43 57 57 50 39 28 25 20 23 28 32 12 5 4 349 341 314 235 175 174 169 152 142 141 132 114 79 61 75 33 18 145 355 15 357 171 195 196 186 189 182 191 195 208 211 136 131 139 145 155 167 164 155 153 138 134 140 129 117 111 101 85 90 74 68 64 46 32 25 13 6 18 29 24 34 26
341 356 1 3 18 61 70 58 41 57 66 67 60 43 26 6 6 9 27 33 30 20 2 357 354 344 296 184 155 140 133 134 140 143 139 134 124 48 45 45 35 25 25 48 159 258 286 204 171 172 82 30 78 122 134 135 127 123 121 117 118 120 123 129 133 111 73 101 117 104 94 84 83 80 70 51 34 31 21 6 359 9 32 20 8